Location: ???
(60.6398°N, 46.9067°E)
Time: 18:37:58
(UTC+00:00)

ARGOS - Pass Details

Date: 08 December 2019
Orbit: 820 x 835 km, 98.5° (Epoch: 16 January)

Event Time Altitude Azimuth Distance (km) Brightness Sun altitude
Exits shadow 15:56:28 38° 359° (N) 1,237 4.0 -28.5°
Drops below altitude 10° 15:59:50 10° 345° (NNW) 2,436 5.8 -28.9°
Sets 16:02:12 0° 343° (NNW) 3,371 6.6 -29.2°
